Regional Weather Roundup
Issued by NWS

Home | Current Version | Previous Version | Text Only | Print | Product List | Glossary On
Versions: 1 2 3 4 5 6 7 8 9 10 11 12 13 14 15 16 17 18 19 20 21 22 23 24 25 26 27 28 29 30 31 32 33 34 35 36 37 38 39 40 41 42 43 44 45 46 47 48 49 50
000
ASUS43 KMPX 231801
RWRMN
WEATHER ROUNDUP FOR MINNESOTA
NATIONAL WEATHER SERVICE TWIN CITIES/CHANHASSEN MN
100 PM CDT MON APR 23 2018


NOTE: "FAIR" INDICATES FEW OR NO CLOUDS BELOW 12,000 FEET WITH NO
SIGNIFICANT WEATHER AND/OR OBSTRUCTIONS TO VISIBILITY. N/A MEANS
CURRENT SKY AND/OR WEATHER CONDITIONS ARE NOT AVAILABLE.

MNZ060>063-068>070-231900-
   Twin Cities Metro

CITY           SKY/WX    TMP DP  RH WIND       PRES   REMARKS
TWIN CITIES    FAIR      66  35  31 VRB6      30.21F
6HR MIN TEMP:  43; 6HR MAX TEMP:  66;

ST PAUL        FAIR      66  32  28 W9        30.21F
CRYSTAL        FAIR      64  32  30 VRB3      30.20F
BLAINE         SUNNY     66  32  28 SW7       30.20F
LAKEVILLE      FAIR      64  36  34 NW6       30.21F
EDEN PRAIRIE   FAIR      65  37  35 VRB5      30.20F
6HR MIN TEMP:  37; 6HR MAX TEMP:  65;

SOUTH ST PAUL  FAIR      65  33  30 S3        30.20F
LAKE ELMO      FAIR      64  36  34 CALM      30.21F
$$
MNZ001>005-007-008-013>017-022>024-027-028-231900-
   Northwest Minnesota

CITY           SKY/WX    TMP DP  RH WIND       PRES   REMARKS
BEMIDJI        FAIR      63  38  39 NW7       30.16F
HALLOCK        FAIR      59  34  38 NW12G18   30.19S
ROSEAU         FAIR      57  39  51 W13G18    30.17S
WARROAD        FAIR      59  36  41 W8G16     30.16S
THIEF RVR FALL FAIR      59  35  40 NW9       30.19F
CROOKSTON      FAIR      57  41  54 N12G17    30.21S
FOSSTON        FAIR      61  37  41 CALM      30.19F
DETROIT LAKES  FAIR      63  36  36 SW8       30.19F
MOORHEAD       FAIR      63  43  48 NW7       30.19F
PARK RAPIDS    FAIR      66  39  37 W9G23     30.16F
MAHNOMEN       FAIR      60  42  51 W7        30.18S
$$
MNZ006-009>011-018-025>026-231900-
   North Central Minnesota

CITY           SKY/WX    TMP DP  RH WIND       PRES   REMARKS
BAUDETTE       FAIR      59  35  40 NW14      30.15S
FLAG ISLAND    FAIR      50  30  46 NW13      30.14S
INTL FALLS     FAIR      64  36  35 W9        30.13F
6HR MIN TEMP:  45; 6HR MAX TEMP:  64;

WASKISH        CLOUDY    59  37  44 SW10      30.16F
BIG FORK       FAIR      64  37  36 SW8       30.14F
LONGVILLE      FAIR      66  37  34 SW7       30.16F
GRAND RAPIDS   FAIR      62  38  40 W8        30.17F
CRANE LAKE     FAIR      61  36  39 SW7       30.15F
ORR            FAIR      63  34  34 W7        30.12F
COOK           FAIR      63  39  42 W8        30.15S
WALKER         FAIR      64  38  37 W8        30.15F
$$
MNZ012-019>021-037-231900-
   Northeast Minnesota

CITY           SKY/WX    TMP DP  RH WIND       PRES   REMARKS
DULUTH         FAIR      64  38  38 W6        30.17F
6HR MIN TEMP:  42; 6HR MAX TEMP:  64;

ELY            FAIR      63  36  36 W10G16    30.13F
HIBBING        FAIR      63  37  38 W12       30.15F
EVELETH        FAIR      64  37  36 SW13G20   30.16F
DULUTH HARBOR  FAIR      63  36  36 SW12      30.18F
TWO HARBORS    FAIR      66  45  45 S14       30.14F
SILVER BAY     FAIR      64  36  34 S12       30.14F
GRAND MARAIS     N/A     43  33  68 SW10      30.16F
G MARAIS ARPRT FAIR      55  28  35 S10G17    30.15F
$$
MNZ029>031-032-039>041-046>048-054>057-064-231900-
   West Central Minnesota

CITY           SKY/WX    TMP DP  RH WIND       PRES   REMARKS
FERGUS FALLS   FAIR      63  43  48 SW3       30.16F
WHEATON        SUNNY     64  37  36 NW5       30.20F
MORRIS         SUNNY     64  43  45 CALM      30.19F
ALEXANDRIA     FAIR      65  37  35 MISG      30.20F
ELBOW LAKE     FAIR      62  40  44 CALM      30.19F
WADENA         FAIR      63  39  42 W12       30.18F
GLENWOOD       FAIR      64  36  34 W3        30.20F
APPLETON       SUNNY     64  34  32 CALM      30.19F
BENSON         SUNNY     64  39  39 W6        30.21F
ORTONVILLE     SUNNY     66  39  37 E6        30.18F
MADISON        SUNNY     66  43  42 SW3       30.19F
WILLMAR        FAIR      63  41  45 SW6       30.22F
$$
MNZ033>034-036-042>043-049>051-058-059-231900-
   Central Minnesota

CITY           SKY/WX    TMP DP  RH WIND       PRES   REMARKS
ST CLOUD       FAIR      64  40  41 CALM      30.20F
6HR MIN TEMP:  31; 6HR MAX TEMP:  64;

SAUK CENTRE    FAIR      63  40  42 SW6       30.20F
PAYNESVILLE    FAIR      64  37  37 CALM      30.20F
AITKIN         FAIR      63  37  39 S7        30.16F
PINE RIVER     FAIR      61  37  41 W7        30.20F
BRAINERD       FAIR      66  36  32 SW10      30.18F
STAPLES        FAIR      64  34  32 W5        30.18F
LONG PRAIRIE   FAIR      63  37  39 W5        30.20F
LITTLE FALLS   FAIR      63  28  27 W6        30.20F
LITCHFIELD     FAIR      64  39  39 W5        30.21F
BUFFALO        FAIR      63  37  38 S6        30.21F
MAPLE LAKE     FAIR      65  40  41 CALM      30.22F
HUTCHINSON     FAIR      64  44  47 W6        30.22F
$$
MNZ037-044-045-052-053-231900-
   East Central Minnesota

CITY           SKY/WX    TMP DP  RH WIND       PRES   REMARKS
PRINCETON      FAIR      66  37  34 NW5       30.20F
MORA           FAIR      61  36  39 W7        30.22F
CAMBRIDGE      FAIR      66  43  42 W7        30.20F
RUSH CITY      FAIR      64  33  32 SW6       30.21F
MOOSE LAKE     FAIR      64  37  36 SW10G17   30.16F
HINCKLEY       FAIR      63  37  39 SW8       30.20F
CLOQUET        FAIR      63  30  29 SW6       30.17F
MCGREGOR       FAIR      64  37  36 W7        30.18F
$$
MNZ071>073-080-081-089-090-097-098-231900-
   Southwest Minnesota

CITY           SKY/WX    TMP DP  RH WIND       PRES   REMARKS
MONTEVIDEO     SUNNY     70  41  35 NW3       30.20F
GRANITE FALLS  SUNNY     65  42  43 SE3       30.22F
CANBY          SUNNY     65  36  34 S5        30.20F
MARSHALL       SUNNY     63  41  44 CALM      30.21F
REDWOOD FALLS  SUNNY     61  43  51 S8        30.20F
OLIVIA         SUNNY     63  39  42 SW3       30.20F
PIPESTONE      SUNNY    N/A N/A N/A SE3       30.20F
WINDOM         SUNNY     63  36  36 SW5       30.22F
WORTHINGTON    SUNNY     62  33  33 VRB5      30.21F
JACKSON        SUNNY     59  36  41 CALM      30.22F
TRACY          SUNNY     60  46  60 SW6       30.21F
SLAYTON        SUNNY     60  41  49 SW3       30.23S
$$
MNZ065>067-074>077-082>085-091>093-231900-
   South Central Minnesota

CITY           SKY/WX    TMP DP  RH WIND       PRES   REMARKS
MANKATO        FAIR      63  36  36 NW3       30.21F
NEW ULM        SUNNY     63  37  39 W6        30.21F
ST JAMES       SUNNY     57  45  62 SE3       30.23F
FAIRMONT       SUNNY     56  40  55 S5        30.22F
GLENCOE        FAIR      62  44  51 SW6       30.21F
OWATONNA       FAIR      63  39  42 CALM      30.21F
WASECA         FAIR      63  37  39 NW3       30.22F
ALBERT LEA     FAIR      61  30  31 N3        30.21F
$$
MNZ078>079-086>088-094>096-231900-
   Southeast Minnesota

CITY           SKY/WX    TMP DP  RH WIND       PRES   REMARKS
ROCHESTER      FAIR      62  34  35 CALM      30.21F
6HR MIN TEMP:  37; 6HR MAX TEMP:  63;

RED WING       FAIR      64  25  22 SW6       30.19F
STANTON        FAIR      65  36  33 S5        30.19F
DODGE CENTER   FAIR      63  30  29 CALM      30.21F
WINONA         FAIR      61  28  29 E5        30.18F
AUSTIN         FAIR      61  34  36 CALM      30.20F
PRESTON        FAIR      60  30  31 NE7       30.20F
$$
ABBREVIATIONS USED IN REMARKS
   TC - TEMPERATURES IN CELSIUS
  WCI - WIND CHILL INDEX
   HX - HEAT INDEX
  VSB - VISIBILITY
$$




USA.gov is the U.S. government's official web portal to all federal, state and local government web resources and services.